Weather in San Juan de Alicante

Spain     38°24′06″N   0°25′58″E
temp.,
°C
wind,
m/s
gust,
m/s
humid.,
%
clouds,
%
prec.,
mm/h
press.,
hPa
HPBL,
m
2 july, sat
sat223:00+22ese238230 0.0 1019359
02:00+21ene128310 0.0 1019134
05:00+20n33800 0.0 101776
08:00+21n22695 0.0 1018159
11:00+26ene234314 0.0 1017694
14:00+28se53470 0.0 1018793
17:00+27se43530 0.0 1017674
20:00+25se22614 0.0 1017394
3 july, sun
sun323:00+22sw017363 0.0 1020205
02:00+24nnw126491 0.0 101872
05:00+21ene1178100 0.0 1018121
08:00+25n4452100 0.0 1016117
11:00+25s33615 0.0 1019483
14:00+30sse43439 0.0 1018555
17:00+27se54494 0.0 1016446
20:00+29ese224112 0.0 1015324
4 july, mon
mon423:00+23s22660 0.0 1019173
02:00+22sse2271100 0.0 1019173
05:00+24e225420 0.0 101654
08:00+22s127257 0.0 1018179
11:00+27ssw33535 0.0 1018594
14:00+29sse424653 0.0 1017702
17:00+30sse324394 0.0 1016613
20:00+28sse22503 0.0 1015304
5 july, tue
tue523:00+25s33630 0.0 1019196
02:00+23ssw126799 0.0 101987
05:00+25n334893 0.0 101634
08:00+23se2265100 0.0 1018176
11:00+27s31540 0.0 1019613
14:00+29se435365 0.0 1019760
17:00+29se43513 0.0 1017595
20:00+28ese33533 0.0 1017335
6 july, wed
wed623:00+25e226387 0.0 1019129
02:00+23sw2273100 0.0 1021187
05:00+24nne3356100 0.1 1018109
08:00+24se1161100 0.1 1020123
11:00+28sse32447 0.0 1019635
14:00+29sse424864 0.0 1019701
17:00+29se33470 0.0 1018596
20:00+26se325912 0.0 1018369